Stations météo

réclame
Mon MeteoGroup
Bale-Mulhouse, France (7299): Température de l'air & dewpoint: 14.11.2017 12:00:00 - 20.11.2017 12:00:00 (CET)Bale-Mulhouse, France (7299): Température de l'air 5cm: 14.11.2017 12:00:00 - 20.11.2017 12:00:00 (CET)Bale-Mulhouse, France (7299): Température de l'air -20cm & Température de l'air -100cm: 14.11.2017 12:00:00 - 20.11.2017 12:00:00 (CET)Bale-Mulhouse, France (7299): Vitesse du vent & gusts: 14.11.2017 12:00:00 - 20.11.2017 12:00:00 (CET)Bale-Mulhouse, France (7299): Direction du vent: 14.11.2017 12:00:00 - 20.11.2017 12:00:00 (CET)Bale-Mulhouse, France (7299): reduced air pressure: 14.11.2017 12:00:00 - 20.11.2017 12:00:00 (CET)Bale-Mulhouse, France (7299): visibility: 14.11.2017 12:00:00 - 20.11.2017 12:00:00 (CET)Bale-Mulhouse, France (7299): Ensoleillement: 14.11.2017 12:00:00 - 20.11.2017 12:00:00 (CET)Bale-Mulhouse, France (7299): Quantités de précipitations: 14.11.2017 12:00:00 - 20.11.2017 12:00:00 (CET)
Date & Time tt [°C] td [°C] tt 5cm [°C] tt -20cm [°C] tt -100cm [°C] ff [km/h] ff [knt] fx [km/h] fx [knt] dd ppp [hPa] vv [km] sd [min] rr [mm]
20.11.2017 12:00:00 4,6 2,1 4,8 5,2 9,9 0 0 11 6 N 1025,9 10 0 0,0
20.11.2017 11:00:00 3,7 1,9 2,3 5,2 9,9 8 4 14 8 SSE 1026,3 10 0 0,0
20.11.2017 10:00:00 1,8 1,2 0,0 5,3 9,9 8 4 14 8 S 1026,6 8 0 0,0
20.11.2017 09:00:00 0,3 0,0 -1,9 5,4 10,0 5 3 12 6 SE 1026,5 10 0 0,0
20.11.2017 08:00:00 -1,5 -1,9 -3,6 5,5 10,0 5 3 9 5 SSE 1026,5 8 0 0,0
20.11.2017 07:00:00 -1,7 -2,3 -4,1 5,6 10,0 3 2 9 5 S 1026,5 8 0 0,0
20.11.2017 06:00:00 -1,7 -2,1 -4,2 5,7 10,0 4 2 7 4 - 1026,5 8 0 0,0
20.11.2017 05:00:00 -1,8 -2,4 -3,8 5,8 10,0 4 2 10 5 - 1026,3 6 0 0,0
20.11.2017 04:00:00 -1,1 -1,8 -3,4 5,9 10,0 0 0 5 3 N 1026,2 0,7 0 0,0
20.11.2017 03:00:00 0,4 -0,3 -1,9 6,1 10,0 4 2 7 4 ESE 1026,5 9 0 0,0
20.11.2017 02:00:00 1,1 0,4 -1,2 6,1 10,0 4 2 5 3 - 1026,4 8 0 0,0
20.11.2017 01:00:00 2,1 1,2 1,0 6,2 10,0 4 2 10 5 ENE 1026,7 10 0 0,0
20.11.2017 00:00:00 2,8 1,5 1,2 6,3 10,0 9 5 14 8 WSW 1026,5 10 0 0,0
19.11.2017 23:00:00 2,8 1,6 -0,6 6,4 10,0 5 3 11 6 SSW 1026,5 10 0 0,0
19.11.2017 22:00:00 2,3 0,7 -0,3 6,5 10,0 5 3 13 7 WSW 1026,6 10 0 0,0
19.11.2017 21:00:00 3,9 1,9 2,2 6,6 10,0 11 6 19 11 W 1026,2 10 0 0,0
19.11.2017 20:00:00 3,1 1,9 -0,4 6,7 10,0 8 4 15 8 SW 1025,4 10 0 0,0
19.11.2017 19:00:00 2,6 1,3 -0,8 6,8 10,0 5 3 11 6 SW 1025,2 15 0 0,0
19.11.2017 18:00:00 3,0 1,4 1,0 6,8 10,0 9 5 18 10 WSW 1024,6 10 0 0,0
19.11.2017 17:00:00 4,2 1,7 2,4 6,8 10,1 9 5 21 11 WSW 1023,8 20 8 0,0
19.11.2017 16:00:00 6,3 2,4 5,8 6,7 10,1 12 7 29 16 W 1023,1 30 18 0,0
19.11.2017 15:00:00 6,9 2,4 7,3 6,6 10,1 20 11 33 18 W 1022,6 50 9 0,0
19.11.2017 14:00:00 7,1 3,2 7,7 6,5 10,1 22 12 32 17 W 1022,2 10 3 0,0
19.11.2017 13:00:00 6,7 3,8 6,8 6,4 10,1 21 11 39 21 W 1022,1 10 34 0,0
19.11.2017 12:00:00 6,3 4,0 6,6 6,2 10,1 28 15 41 22 W 1022,1 15 19 0,0
19.11.2017 11:00:00 6,2 3,9 5,4 6,2 10,1 25 13 47 25 W 1022,0 15 37 0,0
19.11.2017 10:00:00 5,7 3,9 4,8 6,2 10,1 26 14 44 24 W 1021,4 8 31 0,0
19.11.2017 09:00:00 4,3 3,3 2,6 6,2 10,1 15 8 25 13 W 1021,4 6 9 0,0
19.11.2017 08:00:00 2,6 2,0 2,3 6,2 10,1 5 3 11 6 - 1021,3 6 0 0,0
19.11.2017 07:00:00 2,5 1,9 2,2 6,3 10,1 5 3 16 9 E 1020,9 7 0 0,4
19.11.2017 06:00:00 2,4 1,7 2,3 6,3 10,1 9 5 18 10 E 1021,1 5 0 0,6
19.11.2017 05:00:00 3,0 2,0 2,4 6,3 10,1 5 3 13 7 SSE 1021,3 10 0 0,0
19.11.2017 04:00:00 2,6 1,7 2,4 6,4 10,2 8 4 15 8 ESE 1021,7 10 0 0,2
19.11.2017 03:00:00 3,0 2,0 2,5 6,4 10,2 11 6 16 9 SE 1022,0 12 0 0,0
19.11.2017 02:00:00 3,1 1,5 2,5 6,4 10,1 7 4 17 9 S 1022,5 10 0 0,4
19.11.2017 01:00:00 3,4 1,1 2,5 6,4 10,2 13 7 30 16 SW 1023,1 15 0 0,6
19.11.2017 00:00:00 3,8 0,0 2,9 6,5 10,2 5 3 11 6 SSE 1023,7 10 0 0,0
18.11.2017 23:00:00 3,7 -0,1 2,1 6,6 10,2 8 4 13 7 SSW 1024,0 10 0 0,0
18.11.2017 22:00:00 4,1 -0,5 3,1 6,6 10,2 11 6 22 12 SW 1024,5 25 0 0,0
18.11.2017 21:00:00 4,0 0,0 2,9 6,8 10,2 11 6 19 11 WSW 1025,0 25 0 0,0
18.11.2017 20:00:00 4,1 0,1 1,6 6,8 10,2 15 8 21 12 SW 1025,0 10 0 0,0
18.11.2017 19:00:00 3,4 -0,1 1,6 7,0 10,3 11 6 21 11 SW 1025,0 25 0 0,0
18.11.2017 18:00:00 4,0 0,0 2,7 7,0 10,2 11 6 26 14 SW 1025,2 25 0 0,0
18.11.2017 17:00:00 5,1 0,5 4,6 7,0 10,2 15 8 29 16 W 1024,9 30 0 0,0
18.11.2017 16:00:00 5,4 0,6 5,4 7,0 10,2 15 8 29 16 W 1024,8 10 0 0,0
18.11.2017 15:00:00 5,6 1,1 5,7 6,9 10,3 19 11 31 17 WSW 1024,8 30 0 0,0
18.11.2017 14:00:00 6,0 1,9 6,3 6,9 10,3 11 6 24 13 WSW 1024,9 10 0 0,0
18.11.2017 13:00:00 6,1 2,7 6,5 6,8 10,3 9 5 13 7 W 1025,3 10 0 0,0
18.11.2017 12:00:00 5,9 2,2 6,5 6,7 10,3 8 4 15 8 WNW 1025,8 10 0 0,0
18.11.2017 11:00:00 5,4 4,4 5,7 6,7 10,3 2 1 6 3 NNW 1025,7 7 0 0,0
18.11.2017 10:00:00 4,9 4,2 4,9 6,6 10,3 2 1 9 5 - 1025,8 6 0 0,0
18.11.2017 09:00:00 4,7 4,1 4,4 6,6 10,3 3 2 12 6 E 1025,6 5 0 0,0
18.11.2017 08:00:00 4,5 4,1 4,3 6,6 10,3 4 2 6 3 - 1025,5 5 0 0,0
18.11.2017 07:00:00 4,4 4,0 4,2 6,6 10,3 2 1 5 3 NNW 1025,5 5 0 0,0
18.11.2017 06:00:00 4,4 4,1 4,3 6,6 10,3 4 2 6 4 W 1025,4 3,8 0 0,0
18.11.2017 05:00:00 4,4 4,1 4,3 6,6 10,3 4 2 8 5 SW 1025,7 2,0 0 0,0
18.11.2017 04:00:00 4,3 4,0 4,2 6,6 10,4 6 3 9 5 NW 1025,6 0,4 0 0,0
18.11.2017 03:00:00 4,3 4,0 4,1 6,6 10,4 8 4 10 5 NNW 1025,8 0,8 0 0,0
18.11.2017 02:00:00 4,2 3,8 4,2 6,6 10,4 4 2 6 3 WNW 1025,8 3,1 0 0,0
18.11.2017 01:00:00 4,3 3,9 4,2 6,5 10,3 3 2 8 4 W 1025,9 0,9 0 0,0
18.11.2017 00:00:00 4,2 3,6 4,2 6,6 10,4 5 3 8 5 WNW 1026,4 3,5 0 0,0
17.11.2017 23:00:00 4,3 3,6 4,2 6,6 10,4 4 2 13 7 - 1026,5 4,5 0 0,0
17.11.2017 22:00:00 4,3 3,6 3,4 6,6 10,4 9 5 16 8 NNW 1026,6 5 0 0,0
17.11.2017 21:00:00 3,5 2,6 2,3 6,6 10,4 5 3 8 4 NW 1026,6 6 0 0,0
17.11.2017 20:00:00 3,8 2,6 3,1 6,6 10,4 3 1 6 3 NW 1026,4 8 0 0,0
17.11.2017 19:00:00 3,9 2,6 3,6 6,6 10,5 5 3 9 5 NW 1026,6 7 0 0,0
17.11.2017 18:00:00 4,1 2,4 3,8 6,6 10,5 8 4 15 8 NW 1026,4 8 0 0,0
17.11.2017 17:00:00 4,6 2,5 4,0 6,5 10,5 11 6 16 9 NNW 1026,3 10 0 0,0
17.11.2017 16:00:00 5,0 2,2 5,3 6,4 10,5 9 5 13 7 NNW 1026,1 10 4 0,0
17.11.2017 15:00:00 5,6 1,7 6,2 6,2 10,5 8 4 14 8 N 1026,2 10 0 0,0
17.11.2017 14:00:00 5,7 1,4 6,8 6,0 10,5 8 4 14 7 NNW 1026,6 10 0 0,0
17.11.2017 13:00:00 5,5 0,7 7,2 5,8 10,5 8 4 13 7 NNW 1026,8 10 14 0,0
17.11.2017 12:00:00 5,6 1,3 5,4 5,7 10,5 4 2 10 6 - 1027,2 8 44 0,0
17.11.2017 11:00:00 3,3 0,5 4,4 5,6 10,6 4 2 10 6 - 1027,7 7 4 0,0
17.11.2017 10:00:00 2,2 0,9 1,7 5,6 10,6 4 2 10 5 - 1027,7 7 3 0,0
17.11.2017 09:00:00 0,7 0,0 -0,1 5,6 10,6 4 2 10 5 WSW 1028,3 6 0 0,0
17.11.2017 08:00:00 -0,2 -0,8 -0,5 5,7 10,6 8 4 14 8 NW 1028,2 4,5 0 0,0
17.11.2017 07:00:00 0,2 -0,4 -0,3 5,8 10,6 5 3 7 4 - 1027,6 4,0 0 0,0
17.11.2017 06:00:00 -0,1 -0,8 -0,4 5,8 10,6 5 3 10 6 W 1027,6 2,8 0 0,0
17.11.2017 05:00:00 -0,1 -0,7 -0,2 5,9 10,7 4 2 6 3 NNW 1027,6 2,8 0 0,0
17.11.2017 04:00:00 -0,1 -0,7 -0,6 5,9 10,7 4 2 7 4 - 1027,5 5 0 0,0
17.11.2017 03:00:00 0,1 -0,5 -0,1 6,0 10,7 0 0 8 4 N 1027,9 5 0 0,0
17.11.2017 02:00:00 -0,1 -0,5 -0,4 6,0 10,7 3 1 6 3 NNE 1028,1 4,7 0 0,0
17.11.2017 01:00:00 -0,5 -0,9 -1,2 6,2 10,7 0 0 6 3 N 1028,0 5 0 0,0
17.11.2017 00:00:00 -1,0 -1,4 -3,5 6,3 10,7 0 0 8 5 N 1028,0 4,0 0 0,0
16.11.2017 23:00:00 -1,7 -2,4 -3,3 6,5 10,7 4 2 7 4 WSW 1027,9 4,0 0 0,0
16.11.2017 22:00:00 -1,2 -1,8 -3,1 6,6 10,7 5 3 9 5 NW 1028,1 4,5 0 0,0
16.11.2017 21:00:00 -0,7 -1,5 -1,6 6,7 10,8 4 2 11 6 - 1027,7 7 0 0,0
16.11.2017 20:00:00 -0,1 -1,0 -0,9 6,8 10,8 5 3 9 5 NW 1027,2 8 0 0,0
16.11.2017 19:00:00 0,8 -0,5 0,0 6,8 10,8 6 4 12 6 NW 1026,7 9 0 0,0
16.11.2017 18:00:00 1,6 0,0 1,4 6,8 10,8 9 5 17 9 NNW 1026,6 10 0 0,0
16.11.2017 17:00:00 2,4 0,3 2,4 6,8 10,8 11 6 19 10 N 1026,2 10 0 0,0
16.11.2017 16:00:00 3,3 0,2 3,7 6,7 10,8 11 6 16 8 N 1025,7 11 0 0,0
16.11.2017 15:00:00 4,0 -1,0 5,5 6,5 10,8 3 2 13 7 SW 1025,4 10 0 0,0
16.11.2017 14:00:00 4,0 -0,6 5,0 6,4 10,8 4 2 13 7 ENE 1025,4 10 0 0,0
16.11.2017 13:00:00 3,8 -0,4 5,0 6,2 10,8 8 4 16 9 ESE 1025,6 10 18 0,0
16.11.2017 12:00:00 2,5 -0,1 3,8 6,2 10,9 5 3 15 8 - 1026,0 10 0 0,0
16.11.2017 11:00:00 0,9 0,3 1,1 6,2 10,9 2 1 8 4 - 1026,6 8 0 0,0
16.11.2017 10:00:00 -0,2 -0,5 -0,4 6,1 10,9 4 2 6 4 - 1026,7 4,0 0 0,0
16.11.2017 09:00:00 -1,2 -1,5 -1,4 6,2 10,9 0 0 5 3 N 1026,6 1,3 0 0,0
16.11.2017 08:00:00 -1,7 -2,0 -1,7 6,3 10,9 4 2 7 4 - 1026,5 0,7 0 0,0
16.11.2017 07:00:00 -1,6 -1,9 -1,7 6,4 10,9 3 1 7 4 SW 1026,0 0,2 0 0,0
16.11.2017 06:00:00 -1,8 -2,1 -1,7 6,5 10,9 5 3 11 6 NW 1026,1 0,6 0 0,0
16.11.2017 05:00:00 -1,5 -1,9 -1,6 6,6 10,9 0 0 6 3 N 1025,8 0,7 0 0,0
16.11.2017 04:00:00 -1,5 -1,9 -1,5 6,6 11,0 5 3 10 5 - 1025,8 0,5 0 0,0
16.11.2017 03:00:00 -0,7 -1,1 -0,6 6,7 11,0 4 2 13 7 - 1026,1 1,4 0 0,0
16.11.2017 02:00:00 -0,2 -0,8 0,1 6,7 11,0 6 3 11 6 ENE 1026,2 1,9 0 0,0
16.11.2017 01:00:00 0,4 -0,5 0,5 6,8 11,0 4 2 10 6 - 1026,5 7 0 0,0
16.11.2017 00:00:00 0,5 -0,4 0,7 6,9 11,0 5 3 14 7 NE 1026,4 4,0 0 0,0
15.11.2017 23:00:00 0,4 -0,2 0,5 6,9 11,0 2 1 14 8 N 1026,5 2,8 0 0,0
15.11.2017 22:00:00 0,6 0,2 0,7 7,0 11,1 5 3 15 8 NE 1026,8 4,0 0 0,0
15.11.2017 21:00:00 0,7 0,1 0,8 7,0 11,0 4 2 13 7 - 1027,0 4,0 0 0,0
15.11.2017 20:00:00 0,6 0,2 0,5 7,1 11,1 8 4 18 10 NNW 1027,0 3,0 0 0,0
15.11.2017 19:00:00 0,3 -0,1 0,4 7,2 11,1 8 4 16 9 NW 1026,9 2,5 0 0,0
15.11.2017 18:00:00 0,4 -0,2 0,5 7,2 11,1 13 7 19 11 NNW 1026,6 2,0 0 0,0
15.11.2017 17:00:00 0,5 -0,4 0,5 7,2 11,1 11 6 17 9 NNW 1026,3 3,5 1 0,0
15.11.2017 16:00:00 2,1 0,0 2,5 7,1 11,1 13 7 20 11 N 1026,0 10 56 0,0
15.11.2017 15:00:00 4,2 0,2 5,7 7,0 11,1 11 6 21 11 N 1025,6 10 60 0,0
15.11.2017 14:00:00 4,5 0,6 7,4 6,8 11,1 8 4 16 8 NNW 1025,9 10 60 0,0
15.11.2017 13:00:00 5,0 -0,4 4,8 6,7 11,1 5 3 14 8 - 1026,4 10 54 0,0
15.11.2017 12:00:00 2,9 0,8 2,8 6,7 11,2 4 2 12 7 - 1027,4 7 38 0,0
15.11.2017 11:00:00 1,0 0,4 1,3 6,6 11,2 4 2 10 6 - 1028,5 3,5 0 0,0
15.11.2017 10:00:00 -0,2 -0,5 0,3 6,7 11,2 4 2 9 5 N 1028,5 0,8 0 0,0
15.11.2017 09:00:00 -0,6 -0,9 -0,4 6,7 11,2 4 2 8 4 - 1028,7 0,3 0 0,0
15.11.2017 08:00:00 -0,6 -1,0 -0,5 6,8 11,2 2 1 8 4 - 1028,5 1,2 0 0,0
15.11.2017 07:00:00 -0,6 -1,0 -0,5 6,9 11,3 4 2 8 4 - 1028,1 1,5 0 0,0
15.11.2017 06:00:00 -0,2 -0,6 -0,1 6,9 11,3 3 2 9 5 SE 1027,8 0,2 0 0,0
15.11.2017 05:00:00 0,1 -0,3 0,3 7,0 11,3 2 1 9 5 N 1027,9 0,2 0 0,0
15.11.2017 04:00:00 0,3 -0,1 0,2 7,0 11,3 0 0 10 5 N 1028,0 1,9 0 0,0
15.11.2017 03:00:00 0,2 -0,4 0,2 7,1 11,3 8 4 10 5 SE 1028,2 0,9 0 0,0
15.11.2017 02:00:00 0,7 0,3 0,4 7,2 11,3 4 2 7 4 E 1028,1 9 0 0,0
15.11.2017 01:00:00 0,6 0,2 -0,1 7,2 11,3 3 2 4 2 E 1028,4 6 0 0,0
15.11.2017 00:00:00 1,2 0,8 0,7 7,3 11,3 0 0 7 4 N 1028,6 6 0 0,0
14.11.2017 23:00:00 1,2 0,9 -0,1 7,5 11,3 3 2 5 3 E 1028,7 1,8 0 0,0
14.11.2017 22:00:00 0,0 -0,4 -2,2 7,6 11,3 0 0 5 3 N 1028,9 5 0 0,0
14.11.2017 21:00:00 -0,6 -1,2 -2,5 7,7 11,3 3 2 7 4 SSW 1029,0 2,8 0 0,0
14.11.2017 20:00:00 -0,1 -0,8 -1,8 7,9 11,4 4 2 8 4 WNW 1028,7 6 0 0,0
14.11.2017 19:00:00 1,4 0,7 -1,7 8,0 11,4 4 2 12 6 - 1028,3 10 0 0,0
14.11.2017 18:00:00 1,4 0,2 -0,6 8,1 11,4 5 3 7 4 W 1027,9 10 0 0,0
14.11.2017 17:00:00 3,6 1,5 1,9 8,1 11,4 8 4 14 8 NNW 1026,9 10 30 0,0
14.11.2017 16:00:00 5,7 2,5 5,9 8,0 11,4 9 5 20 11 N 1026,4 10 58 0,0
14.11.2017 15:00:00 6,1 2,2 7,0 7,9 11,4 11 6 21 11 NNW 1026,2 10 60 0,0
14.11.2017 14:00:00 5,7 1,8 6,5 7,7 11,4 11 6 20 11 NNW 1026,1 10 54 0,0
14.11.2017 13:00:00 5,2 2,0 6,3 7,6 11,4 5 3 16 9 - 1026,5 10 35 0,0
14.11.2017 12:00:00 5,2 2,2 5,6 7,5 11,4 9 5 18 10 N 1026,7 18 53 0,0

tt = Température de l'air
td = dewpoint
tt 5cm = Température de l'air 5cm
tt -20cm = Température de l'air -20cm
tt -100cm = Température de l'air -100cm
ff = Vitesse du vent
fx = gusts
dd = Direction du vent
ppp = reduced air pressure
vv = visibility
sd = Ensoleillement
rr = Quantités de précipitations

stations d'obs. à proximité